LEMUR-2-WALLACE (46910 NORAD) Tracking and Keplerian Element Data

This shows tracking and keplerian element data for the satellite.

Feedback or suggestion? Click here.




ElementValue
Catalog46910
NameLEMUR-2-WALLACE
Epoch Orbit1120
Epoch Day21.04797827
Epoch Year2021
RAAN18.341
Inclination36.9067
Eccentricity0.000754
Argument of Perigee229.6027
Mean Anonmoly130.4062
Mean Motion14.99044097
Decay Rate7.54E-06
L11 46910U 20081F 21021.04797827 .00000754 00000-0 67268-4 0 9990
L22 46910 36.9067 18.3410 0007540 229.6027 130.4062 14.99044097 11201

Live tracking and technical data element details for LEMUR-2-WALLACE (NORAD 46910). LEMUR-2-WALLACE can be tracked NOW for your location showing map with azimuth and elevation plus other details from your city location.

Track the satellite on the map from your city or location and see movement details for azimuth, elevation, latitude, longitude, range, height, and movement on the map or in text.







IsCatalogInMostPopularTable: catalog: 46910, numindb: 29
Update: records affected: 1



GetName: 46910 LEMUR-2-WALLACE

Hit Count: updated at: Fri, 22 Jan 2021 18:44:54 GMT